| time (UTC) | temp C | wind direction | speed KPH | gust KPH | rain 1hr cm | rain 24hr cm | rain mn cm | humidity % | barometer mb |
| 20260504200938 | 26 | 278 | 6.4 | 8.0 | 0.00 | 0.00 | 0.00 | 52 | 1006.0 |
| 20260504200435 | 26 | 283 | 20.9 | 29.0 | 0.00 | 0.00 | 0.00 | 49 | 1006.1 |
| 20260504195931 | 25 | 213 | 12.9 | 19.3 | 0.00 | 0.00 | 0.00 | 52 | 1006.2 |
| 20260504195427 | 26 | 211 | 17.7 | 24.1 | 0.00 | 0.00 | 0.00 | 50 | 1006.1 |
| 20260504194924 | 25 | 105 | 14.5 | 24.1 | 0.00 | 0.00 | 0.00 | 52 | 1006.0 |
| 20260504194420 | 26 | 163 | 14.5 | 17.7 | 0.00 | 0.00 | 0.00 | 50 | 1006.1 |
| 20260504193916 | 26 | 192 | 6.4 | 8.0 | 0.00 | 0.00 | 0.00 | 53 | 1006.1 |
| 20260504193414 | 25 | 206 | 22.5 | 33.8 | 0.00 | 0.00 | 0.00 | 50 | 1006.1 |
| 20260504192912 | 25 | 178 | 8.0 | 16.1 | 0.00 | 0.00 | 0.00 | 51 | 1006.1 |
| 20260504192409 | 25 | 188 | 14.5 | 22.5 | 0.00 | 0.00 | 0.00 | 50 | 1006.3 |
| 20260504191908 | 25 | 185 | 19.3 | 24.1 | 0.00 | 0.00 | 0.00 | 50 | 1006.3 |
| 20260504191405 | 25 | 204 | 17.7 | 22.5 | 0.00 | 0.00 | 0.00 | 49 | 1006.1 |
| 20260504190900 | 25 | 279 | 27.4 | 37.0 | 0.00 | 0.00 | 0.00 | 48 | 1006.4 |
| 20260504190356 | 25 | 269 | 14.5 | 22.5 | 0.00 | 0.00 | 0.00 | 51 | 1006.3 |
| 20260504185853 | 26 | 233 | 14.5 | 24.1 | 0.00 | 0.00 | 0.00 | 50 | 1006.3 |
| 20260504185350 | 25 | 187 | 9.7 | 11.3 | 0.00 | 0.00 | 0.00 | 51 | 1006.4 |
| 20260504184846 | 25 | 238 | 17.7 | 29.0 | 0.00 | 0.00 | 0.00 | 49 | 1006.5 |
| 20260504184342 | 25 | 199 | 6.4 | 12.9 | 0.00 | 0.00 | 0.00 | 53 | 1006.4 |
| 20260504183838 | 25 | 190 | 24.1 | 30.6 | 0.00 | 0.00 | 0.00 | 50 | 1006.9 |
| 20260504183336 | 25 | 262 | 14.5 | 19.3 | 0.00 | 0.00 | 0.00 | 49 | 1006.8 |
| 20260504182833 | 25 | 208 | 24.1 | 30.6 | 0.00 | 0.00 | 0.00 | 50 | 1006.9 |
| 20260504182331 | 25 | 231 | 17.7 | 29.0 | 0.00 | 0.00 | 0.00 | 51 | 1006.5 |
| 20260504181827 | 25 | 211 | 14.5 | 19.3 | 0.00 | 0.00 | 0.00 | 51 | 1006.9 |
| 20260504181325 | 25 | 156 | 19.3 | 22.5 | 0.00 | 0.00 | 0.00 | 52 | 1006.9 |
| 20260504180824 | 25 | 203 | 16.1 | 19.3 | 0.00 | 0.00 | 0.00 | 50 | 1007.1 |
| 20260504180322 | 25 | 180 | 11.3 | 17.7 | 0.00 | 0.00 | 0.00 | 52 | 1007.1 |
| 20260504175820 | 25 | 213 | 17.7 | 22.5 | 0.00 | 0.00 | 0.00 | 50 | 1007.0 |
| 20260504175316 | 25 | 221 | 12.9 | 17.7 | 0.00 | 0.00 | 0.00 | 50 | 1007.0 |
| 20260504174815 | 24 | 189 | 20.9 | 24.1 | 0.00 | 0.00 | 0.00 | 49 | 1007.0 |
| 20260504174311 | 24 | 145 | 19.3 | 25.7 | 0.00 | 0.00 | 0.00 | 51 | 1007.2 |
| 20260504173808 | 24 | 191 | 11.3 | 17.7 | 0.00 | 0.00 | 0.00 | 52 | 1007.3 |
| 20260504173305 | 24 | 200 | 12.9 | 16.1 | 0.00 | 0.00 | 0.00 | 54 | 1007.3 |
| 20260504172802 | 24 | 251 | 25.7 | 33.8 | 0.00 | 0.00 | 0.00 | 50 | 1007.5 |
| 20260504172259 | 24 | 207 | 9.7 | 12.9 | 0.00 | 0.00 | 0.00 | 51 | 1007.2 |
| 20260504171754 | 24 | 223 | 22.5 | 33.8 | 0.00 | 0.00 | 0.00 | 51 | 1007.4 |
| 20260504171252 | 24 | 147 | 16.1 | 22.5 | 0.00 | 0.00 | 0.00 | 51 | 1007.7 |
| 20260504170749 | 23 | 213 | 14.5 | 22.5 | 0.00 | 0.00 | 0.00 | 53 | 1007.3 |
| 20260504170246 | 23 | 213 | 12.9 | 16.1 | 0.00 | 0.00 | 0.00 | 54 | 1007.6 |
| 20260504160204 | 23 | 233 | 6.4 | 8.0 | 0.00 | 0.00 | 0.00 | 51 | 1008.0 |
| 20260504151132 | 22 | 202 | 20.9 | 24.1 | 0.00 | 0.00 | 0.00 | 52 | 1008.5 |
| 20260504150630 | 22 | 193 | 3.2 | 11.3 | 0.00 | 0.00 | 0.00 | 54 | 1008.6 |
| 20260504150126 | 21 | 205 | 20.9 | 24.1 | 0.00 | 0.00 | 0.00 | 52 | 1008.5 |
| 20260504141055 | 20 | 194 | 16.1 | 17.7 | 0.00 | 0.00 | 0.00 | 57 | 1009.0 |
| 20260504140551 | 20 | 227 | 11.3 | 16.1 | 0.00 | 0.00 | 0.00 | 57 | 1008.9 |
| 20260504130516 | 17 | 190 | 17.7 | 19.3 | 0.00 | 0.00 | 0.00 | 60 | 1009.4 |
| 20260504110403 | 16 | 124 | 6.4 | 8.0 | 0.00 | 0.00 | 0.00 | 63 | 1009.5 |
| 20260504100320 | 17 | 218 | 6.4 | 8.0 | 0.00 | 0.00 | 0.00 | 60 | 1010.0 |
| 20260504081714 | 17 | 223 | 6.4 | 6.4 | 0.00 | 0.00 | 0.00 | 56 | 1010.5 |
| 20260504081210 | 17 | 222 | 4.8 | 6.4 | 0.00 | 0.00 | 0.00 | 56 | 1010.3 |
| 20260504080706 | 17 | 226 | 6.4 | 8.0 | 0.00 | 0.00 | 0.00 | 56 | 1010.2 |
| 20260504080203 | 17 | 244 | 0.0 | 1.6 | 0.00 | 0.00 | 0.00 | 56 | 1010.3 |
| 20260504070131 | 17 | 222 | 1.6 | 1.6 | 0.00 | 0.00 | 0.00 | 56 | 1010.9 |
| 20260504050519 | 19 | 197 | 4.8 | 6.4 | 0.00 | 0.00 | 0.00 | 55 | 1011.6 |
| 20260504050016 | 19 | 218 | 4.8 | 4.8 | 0.00 | 0.00 | 0.00 | 54 | 1011.4 |
| 20260504045513 | 19 | 225 | 8.0 | 11.3 | 0.00 | 0.00 | 0.00 | 55 | 1011.5 |
| 20260504045008 | 19 | 198 | 8.0 | 11.3 | 0.00 | 0.00 | 0.00 | 55 | 1011.6 |
| 20260504044506 | 19 | 248 | 3.2 | 6.4 | 0.00 | 0.00 | 0.00 | 54 | 1011.7 |
| 20260504044003 | 19 | 203 | 3.2 | 6.4 | 0.00 | 0.00 | 0.00 | 54 | 1011.6 |
| 20260504043500 | 19 | 232 | 4.8 | 6.4 | 0.00 | 0.00 | 0.00 | 54 | 1011.6 |
| 20260504042958 | 19 | 179 | 3.2 | 4.8 | 0.00 | 0.00 | 0.00 | 54 | 1011.8 |
| 20260504042454 | 19 | 267 | 3.2 | 4.8 | 0.00 | 0.00 | 0.00 | 54 | 1011.6 |
| 20260504041951 | 19 | 257 | 6.4 | 8.0 | 0.00 | 0.00 | 0.00 | 53 | 1011.6 |
| 20260504041447 | 19 | 200 | 3.2 | 4.8 | 0.00 | 0.00 | 0.00 | 53 | 1011.6 |
| 20260504040943 | 19 | 245 | 4.8 | 6.4 | 0.00 | 0.00 | 0.00 | 53 | 1011.6 |
| 20260504040441 | 20 | 214 | 3.2 | 6.4 | 0.00 | 0.00 | 0.00 | 53 | 1011.8 |
| 20260504035936 | 20 | 210 | 6.4 | 8.0 | 0.00 | 0.00 | 0.00 | 53 | 1011.8 |
| 20260504035434 | 20 | 245 | 4.8 | 4.8 | 0.00 | 0.00 | 0.00 | 53 | 1011.7 |
| 20260504034931 | 20 | 222 | 6.4 | 6.4 | 0.00 | 0.00 | 0.00 | 52 | 1011.7 |
| 20260504034428 | 20 | 188 | 8.0 | 8.0 | 0.00 | 0.00 | 0.00 | 52 | 1011.7 |
| 20260504033925 | 20 | 200 | 4.8 | 6.4 | 0.00 | 0.00 | 0.00 | 53 | 1011.7 |
| 20260504033423 | 19 | 220 | 8.0 | 8.0 | 0.00 | 0.00 | 0.00 | 53 | 1011.8 |
| 20260504032920 | 19 | 204 | 1.6 | 4.8 | 0.00 | 0.00 | 0.00 | 53 | 1011.7 |
| 20260504032417 | 19 | 218 | 1.6 | 1.6 | 0.00 | 0.00 | 0.00 | 53 | 1011.7 |
| 20260504031913 | 19 | 240 | 1.6 | 1.6 | 0.00 | 0.00 | 0.00 | 53 | 1011.8 |
| 20260504031411 | 19 | 211 | 4.8 | 6.4 | 0.00 | 0.00 | 0.00 | 54 | 1011.8 |
| 20260504030907 | 19 | 222 | 3.2 | 4.8 | 0.00 | 0.00 | 0.00 | 53 | 1011.7 |
| 20260504030404 | 19 | 224 | 0.0 | 1.6 | 0.00 | 0.00 | 0.00 | 53 | 1011.9 |
| 20260504025900 | 20 | 243 | 1.6 | 1.6 | 0.00 | 0.00 | 0.00 | 53 | 1011.9 |
| 20260504025357 | 20 | 233 | 1.6 | 1.6 | 0.00 | 0.00 | 0.00 | 53 | 1011.6 |
| 20260504024854 | 20 | 227 | 6.4 | 11.3 | 0.00 | 0.00 | 0.00 | 52 | 1011.7 |
| 20260504024350 | 20 | 190 | 3.2 | 4.8 | 0.00 | 0.00 | 0.00 | 53 | 1011.7 |
| 20260504023848 | 20 | 179 | 3.2 | 4.8 | 0.00 | 0.00 | 0.00 | 54 | 1011.6 |
| 20260504023344 | 20 | 203 | 3.2 | 4.8 | 0.00 | 0.00 | 0.00 | 54 | 1011.6 |
| 20260504022839 | 20 | 233 | 3.2 | 4.8 | 0.00 | 0.00 | 0.00 | 56 | 1011.4 |
| 20260504022337 | 20 | 174 | 3.2 | 4.8 | 0.00 | 0.00 | 0.00 | 56 | 1011.5 |
| 20260504021833 | 19 | 235 | 0.0 | 0.0 | 0.00 | 0.00 | 0.00 | 57 | 1011.5 |
| 20260504021331 | 19 | 202 | 1.6 | 1.6 | 0.00 | 0.00 | 0.00 | 58 | 1011.5 |
| 20260504020828 | 19 | 163 | 4.8 | 6.4 | 0.00 | 0.00 | 0.00 | 58 | 1011.3 |
| 20260504020324 | 19 | 221 | 0.0 | 0.0 | 0.00 | 0.00 | 0.00 | 59 | 1011.4 |
| 20260504015820 | 19 | 218 | 0.0 | 0.0 | 0.00 | 0.00 | 0.00 | 58 | 1011.3 |
| 20260504015317 | 20 | 206 | 0.0 | 1.6 | 0.00 | 0.00 | 0.00 | 58 | 1011.3 |
| 20260504014813 | 20 | 206 | 1.6 | 1.6 | 0.00 | 0.00 | 0.00 | 59 | 1011.2 |
| 20260504014309 | 20 | 214 | 1.6 | 1.6 | 0.00 | 0.00 | 0.00 | 54 | 1011.4 |
| 20260504013807 | 20 | 189 | 3.2 | 4.8 | 0.00 | 0.00 | 0.00 | 54 | 1011.2 |
| 20260504013305 | 21 | 223 | 0.0 | 0.0 | 0.00 | 0.00 | 0.00 | 54 | 1011.2 |
| 20260504012800 | 21 | 197 | 3.2 | 4.8 | 0.00 | 0.00 | 0.00 | 53 | 1011.4 |
| 20260504012259 | 21 | 212 | 1.6 | 1.6 | 0.00 | 0.00 | 0.00 | 52 | 1011.1 |
| 20260504011755 | 22 | 192 | 3.2 | 4.8 | 0.00 | 0.00 | 0.00 | 50 | 1011.4 |
| 20260504011252 | 22 | 225 | 0.0 | 0.0 | 0.00 | 0.00 | 0.00 | 49 | 1011.3 |
| 20260504010748 | 22 | 213 | 1.6 | 4.8 | 0.00 | 0.00 | 0.00 | 49 | 1011.1 |
| 20260504010244 | 22 | 217 | 1.6 | 1.6 | 0.00 | 0.00 | 0.00 | 48 | 1011.1 |
| 20260504005741 | 22 | 219 | 3.2 | 4.8 | 0.00 | 0.00 | 0.00 | 47 | 1011.2 |
| 20260504005238 | 22 | 201 | 1.6 | 1.6 | 0.00 | 0.00 | 0.00 | 47 | 1011.1 |
| 20260504004736 | 23 | 166 | 1.6 | 1.6 | 0.00 | 0.00 | 0.00 | 46 | 1011.2 |
| 20260504004232 | 23 | 198 | 6.4 | 8.0 | 0.00 | 0.00 | 0.00 | 45 | 1011.1 |
| 20260504003729 | 23 | 202 | 4.8 | 6.4 | 0.00 | 0.00 | 0.00 | 44 | 1011.2 |
| 20260504003226 | 23 | 165 | 3.2 | 4.8 | 0.00 | 0.00 | 0.00 | 44 | 1011.2 |
| 20260504002723 | 24 | 227 | 3.2 | 6.4 | 0.00 | 0.00 | 0.00 | 43 | 1011.2 |
| 20260504002219 | 24 | 241 | 4.8 | 8.0 | 0.00 | 0.00 | 0.00 | 43 | 1011.3 |
| 20260504001718 | 25 | 230 | 6.4 | 8.0 | 0.00 | 0.00 | 0.00 | 41 | 1011.2 |
| 20260504001214 | 25 | 191 | 4.8 | 6.4 | 0.00 | 0.00 | 0.00 | 41 | 1011.2 |
| 20260504000711 | 25 | 179 | 6.4 | 6.4 | 0.00 | 0.00 | 0.00 | 40 | 1011.4 |
| 20260504000208 | 25 | 253 | 4.8 | 6.4 | 0.00 | 0.00 | 0.00 | 40 | 1011.5 |
| 20260503235706 | 25 | 216 | 8.0 | 8.0 | 0.00 | 0.00 | 0.00 | 38 | 1011.5 |
| 20260503235203 | 25 | 179 | 8.0 | 8.0 | 0.00 | 0.00 | 0.00 | 39 | 1011.6 |
| 20260503234700 | 26 | 260 | 3.2 | 4.8 | 0.00 | 0.00 | 0.00 | 38 | 1011.8 |
| 20260503234159 | 26 | 217 | 6.4 | 11.3 | 0.00 | 0.00 | 0.00 | 38 | 1011.9 |
| 20260503233655 | 25 | 330 | 3.2 | 4.8 | 0.00 | 0.00 | 0.00 | 39 | 1011.7 |
| 20260503233151 | 25 | 281 | 0.0 | 0.0 | 0.00 | 0.00 | 0.00 | 37 | 1011.9 |
| 20260503232648 | 25 | 269 | 0.0 | 1.6 | 0.00 | 0.00 | 0.00 | 38 | 1012.0 |
| 20260503232145 | 25 | 271 | 1.6 | 1.6 | 0.00 | 0.00 | 0.00 | 37 | 1012.0 |
| 20260503231643 | 26 | 317 | 1.6 | 1.6 | 0.00 | 0.00 | 0.00 | 36 | 1012.0 |
| 20260503231139 | 26 | 264 | 0.0 | 1.6 | 0.00 | 0.00 | 0.00 | 35 | 1012.0 |
| 20260503230636 | 26 | 271 | 4.8 | 6.4 | 0.00 | 0.00 | 0.00 | 36 | 1012.0 |
| 20260503230134 | 26 | 259 | 6.4 | 8.0 | 0.00 | 0.00 | 0.00 | 33 | 1012.0 |
| 20260503225631 | 26 | 194 | 6.4 | 8.0 | 0.00 | 0.00 | 0.00 | 32 | 1012.2 |
| 20260503225130 | 26 | 241 | 1.6 | 1.6 | 0.00 | 0.00 | 0.00 | 32 | 1011.9 |
| 20260503224628 | 26 | 270 | 4.8 | 8.0 | 0.00 | 0.00 | 0.00 | 32 | 1012.1 |
| 20260503224126 | 27 | 222 | 4.8 | 6.4 | 0.00 | 0.00 | 0.00 | 30 | 1012.1 |
| 20260503223624 | 27 | 284 | 3.2 | 6.4 | 0.00 | 0.00 | 0.00 | 29 | 1012.1 |
| 20260503223119 | 27 | 302 | 6.4 | 6.4 | 0.00 | 0.00 | 0.00 | 31 | 1012.1 |
| 20260503222617 | 27 | 276 | 4.8 | 8.0 | 0.00 | 0.00 | 0.00 | 30 | 1012.2 |
| 20260503222115 | 27 | 277 | 1.6 | 1.6 | 0.00 | 0.00 | 0.00 | 35 | 1012.2 |
| 20260503221613 | 28 | 203 | 4.8 | 6.4 | 0.00 | 0.00 | 0.00 | 34 | 1012.0 |
| 20260503221110 | 28 | 262 | 1.6 | 1.6 | 0.00 | 0.00 | 0.00 | 36 | 1012.2 |
| 20260503220607 | 27 | 233 | 6.4 | 8.0 | 0.00 | 0.00 | 0.00 | 36 | 1012.1 |
| 20260503220103 | 27 | 222 | 1.6 | 1.6 | 0.00 | 0.00 | 0.00 | 37 | 1012.3 |
| 20260503215600 | 26 | 161 | 11.3 | 16.1 | 0.00 | 0.00 | 0.00 | 34 | 1012.4 |
| 20260503215057 | 27 | 241 | 9.7 | 16.1 | 0.00 | 0.00 | 0.00 | 36 | 1012.5 |
| 20260503214555 | 27 | 207 | 4.8 | 6.4 | 0.00 | 0.00 | 0.00 | 36 | 1012.4 |
| 20260503214051 | 27 | 274 | 3.2 | 6.4 | 0.00 | 0.00 | 0.00 | 33 | 1012.5 |
| 20260503213550 | 28 | 256 | 8.0 | 11.3 | 0.00 | 0.00 | 0.00 | 34 | 1012.7 |
| 20260503213046 | 27 | 268 | 0.0 | 1.6 | 0.00 | 0.00 | 0.00 | 39 | 1012.7 |
| 20260503212544 | 26 | 188 | 9.7 | 16.1 | 0.00 | 0.00 | 0.00 | 35 | 1012.7 |
| 20260503212042 | 27 | 231 | 16.1 | 24.1 | 0.00 | 0.00 | 0.00 | 33 | 1013.1 |
| 20260503211538 | 27 | 203 | 4.8 | 11.3 | 0.00 | 0.00 | 0.00 | 38 | 1012.8 |
| 20260503211033 | 27 | 266 | 1.6 | 1.6 | 0.00 | 0.00 | 0.00 | 41 | 1013.1 |
| 20260503210531 | 27 | 249 | 4.8 | 6.4 | 0.00 | 0.00 | 0.00 | 35 | 1013.3 |
| 20260503210026 | 27 | 269 | 3.2 | 4.8 | 0.00 | 0.00 | 0.00 | 39 | 1013.3 |
| 20260503205523 | 27 | 282 | 3.2 | 6.4 | 0.00 | 0.00 | 0.00 | 38 | 1013.2 |
| 20260503205020 | 27 | 229 | 3.2 | 4.8 | 0.00 | 0.00 | 0.00 | 40 | 1013.4 |
| 20260503204517 | 26 | 236 | 11.3 | 17.7 | 0.00 | 0.00 | 0.00 | 37 | 1013.6 |
| 20260503204014 | 27 | 243 | 11.3 | 16.1 | 0.00 | 0.00 | 0.00 | 36 | 1013.5 |
| 20260503203511 | 27 | 184 | 17.7 | 19.3 | 0.00 | 0.00 | 0.00 | 38 | 1013.7 |
| 20260503203008 | 27 | 270 | 3.2 | 4.8 | 0.00 | 0.00 | 0.00 | 40 | 1013.8 |
| 20260503202506 | 26 | 267 | 1.6 | 1.6 | 0.00 | 0.00 | 0.00 | 41 | 1014.0 |
| 20260503202004 | 26 | 227 | 9.7 | 12.9 | 0.00 | 0.00 | 0.00 | 39 | 1014.1 |
| 20260503201501 | 26 | 301 | 4.8 | 6.4 | 0.00 | 0.00 | 0.00 | 42 | 1013.9 |